LiveATC.Net - Listen to live air traffic control over the Internet!


ICAO: URSS  IATA: AER   Airport: Sochi International Airport
City: Sochi
Country: Russia   Continent: Europe
URSS METAR Weather: URSS 281700Z 06001MPS 9999 NSC 09/07 Q1020 R06/010070 R02/////// NOSIG RMK R02/04004MPS QFE764
URSS ADS-B Flight Tracking (ADSBExchange)
URSS Flight Activity (FlightAware)
URSS Webcam:  (Airport Webcams) 

URSS Gnd/Twr/App
Feed Status: UP   Listeners: 4
Listen in your browser - HTML5 player (in browser, HTML5)
Click here to listen with your own player (launches your MP3 player)
Archive Access: URSS Gnd/Twr/App
FacilityFrequency
Sochi Approach118.300
Sochi Approach119.700
Sochi District (Small Aircraft)118.500
Sochi Start121.200
Sochi Taxi119.000
Sochi Tower124.600

NOTICE

Unauthorized use prohibited. See LiveATC.net Terms of Service


Airport/ARTCC Code
Frequency Search
(e.g., 124.400, 128.75)
Site-wide search
 


Browse Feeds
Top 50 Feeds
HF Oceanic Feeds
Coverage Map
Bad Weather Areas

LiveATC FAQ
Offer LiveATC feed
Contact LiveATC.net
Press Inquiries

LiveATC on iPhone
LiveATC on Android

LiveATC Mobile
(Mobile browser)

ATC Audio Archives
Interesting Recordings

LiveATC Forums


Home Page
About LiveATC.net


Terms of Use
Privacy Policy

AIRMETs/SIGMETs

FAA Airport Status
NAS Status
Arrival Demand


Server Software By:
Icecast.org
Liquidsoap